When you browse on this site, cookies collect data to enhance your experience and personalize the content and advertising you see.
Visit our Privacy Policy to learn more. By continuing to use the site, you agree to this use of cookies and data.
  • In Denmark
  • List of Countries
  • For 7 days
  • Water Temperature
  • Satellite Maps
  • Weather Map
  • Weather Widgets
  • user-avatar
    Login

    Hourly Weather Etchmiadzin

    Today, 11 December, Tuesday

    Time Temperature Precipitation Wind Pressure Humidity
    00:00 +5°C° 0 mm 2 mps 685 mmHg 73%
    01:00 +5°C° 0 mm 2 mps 685 mmHg 73%
    02:00 +5°C° 0 mm 2 mps 685 mmHg 73%
    03:00 +5°C° 0 mm 2 mps 685 mmHg 74%
    04:00 +5°C° 0 mm 2 mps 685 mmHg 74%
    05:00 +4°C° 0 mm 2 mps 685 mmHg 74%
    06:00 +4°C° 0 mm 2 mps 685 mmHg 74%
    07:00 +4°C° 0 mm 3 mps 685 mmHg 71%
    08:00 +5°C° 0 mm 3 mps 685 mmHg 68%
    09:00 +7°C° 0 mm 3 mps 685 mmHg 65%
    10:00 +7°C° 0 mm 4 mps 684 mmHg 62%
    11:00 +8°C° 0 mm 4 mps 683 mmHg 59%
    12:00 +10°C° 0 mm 4 mps 683 mmHg 56%
    13:00 +10°C° 0.1 mm 4 mps 683 mmHg 56%
    14:00 +10°C° 0.1 mm 4 mps 682 mmHg 56%
    15:00 +10°C° 0.1 mm 4 mps 682 mmHg 56%
    16:00 +8°C° 0 mm 4 mps 682 mmHg 59%
    17:00 +8°C° 0 mm 3 mps 682 mmHg 62%
    18:00 +7°C° 0 mm 3 mps 682 mmHg 65%
    19:00 +7°C° 0.1 mm 3 mps 682 mmHg 66%
    20:00 +7°C° 0.1 mm 3 mps 682 mmHg 67%
    21:00 +7°C° 0.1 mm 2 mps 682 mmHg 68%
    22:00 +7°C° 0.4 mm 3 mps 683 mmHg 71%
    23:00 +7°C° 0.4 mm 3 mps 683 mmHg 73%

    Tomorrow, 12 December, Wednesday

    Time Temperature Precipitation Wind Pressure Humidity
    00:00 +7°C° 0.4 mm 3 mps 683 mmHg 75%
    01:00 +7°C° 0.4 mm 3 mps 683 mmHg 77%
    02:00 +7°C° 0.4 mm 3 mps 684 mmHg 79%
    03:00 +7°C° 0.4 mm 3 mps 684 mmHg 80%
    04:00 +7°C° 0.2 mm 3 mps 684 mmHg 80%
    05:00 +5°C° 0.2 mm 3 mps 683 mmHg 80%
    06:00 +5°C° 0.2 mm 3 mps 683 mmHg 81%
    07:00 +7°C° 0.5 mm 3 mps 683 mmHg 79%
    08:00 +6°C° 0.5 mm 4 mps 682 mmHg 77%
    09:00 +6°C° 0.5 mm 4 mps 682 mmHg 75%
    10:00 +7°C° 0.6 mm 5 mps 681 mmHg 74%
    11:00 +7°C° 0.6 mm 5 mps 681 mmHg 73%
    12:00 +7°C° 0.6 mm 5 mps 680 mmHg 72%
    13:00 +8°C° 0.5 mm 5 mps 680 mmHg 70%
    14:00 +8°C° 0.5 mm 5 mps 679 mmHg 68%
    15:00 +9°C° 0.5 mm 6 mps 679 mmHg 66%
    16:00 +8°C° 1.2 mm 5 mps 679 mmHg 69%
    17:00 +8°C° 1.2 mm 4 mps 679 mmHg 72%
    18:00 +8°C° 1.2 mm 3 mps 679 mmHg 75%
    19:00 +8°C° 0.7 mm 3 mps 679 mmHg 74%
    20:00 +8°C° 0.7 mm 3 mps 679 mmHg 73%
    21:00 +8°C° 0.7 mm 3 mps 679 mmHg 73%
    22:00 +8°C° 1.2 mm 3 mps 679 mmHg 74%
    23:00 +8°C° 1.2 mm 3 mps 679 mmHg 75%

    Day after tomorrow, 13 December, Thursday

    Time Temperature Precipitation Wind Pressure Humidity
    00:00 +8°C° 1.2 mm 3 mps 679 mmHg 76%
    01:00 +7°C° 1.3 mm 3 mps 680 mmHg 78%
    02:00 +6°C° 1.3 mm 4 mps 680 mmHg 80%
    03:00 +6°C° 1.3 mm 4 mps 680 mmHg 83%
    04:00 +5°C° 0.4 mm 4 mps 680 mmHg 82%
    05:00 +5°C° 0.4 mm 3 mps 680 mmHg 82%
    06:00 +4°C° 0.4 mm 3 mps 681 mmHg 81%
    07:00 +5°C° 0.1 mm 3 mps 681 mmHg 79%
    08:00 +5°C° 0.1 mm 3 mps 682 mmHg 76%
    09:00 +5°C° 0.1 mm 3 mps 683 mmHg 73%
    10:00 +7°C° 0.1 mm 3 mps 683 mmHg 70%
    11:00 +8°C° 0.1 mm 3 mps 683 mmHg 67%
    12:00 +8°C° 0.1 mm 3 mps 683 mmHg 63%
    13:00 +8°C° 0.1 mm 3 mps 684 mmHg 62%
    14:00 +8°C° 0.1 mm 3 mps 684 mmHg 61%
    15:00 +8°C° 0.1 mm 3 mps 685 mmHg 60%
    16:00 +7°C° 0 mm 3 mps 685 mmHg 62%
    17:00 +5°C° 0 mm 2 mps 686 mmHg 64%
    18:00 +4°C° 0 mm 2 mps 686 mmHg 66%
    19:00 +3°C° 0 mm 2 mps 687 mmHg 67%
    20:00 +3°C° 0 mm 2 mps 687 mmHg 67%
    21:00 +2°C° 0 mm 2 mps 688 mmHg 67%
    22:00 +2°C° 0 mm 2 mps 688 mmHg 68%
    23:00 +1°C° 0 mm 2 mps 688 mmHg 68%

    14 December, Friday

    Time Temperature Precipitation Wind Pressure Humidity
    00:00 +1°C° 0 mm 2 mps 689 mmHg 68%
    01:00 +1°C° 0 mm 2 mps 689 mmHg 68%
    02:00 +1°C° 0 mm 2 mps 689 mmHg 69%
    03:00 -1°C° 0 mm 2 mps 689 mmHg 69%
    04:00 -1°C° 0 mm 2 mps 690 mmHg 69%
    05:00 -1°C° 0 mm 2 mps 690 mmHg 69%
    06:00 -1°C° 0 mm 2 mps 690 mmHg 69%
    07:00 +1°C° 0 mm 2 mps 690 mmHg 68%
    08:00 +1°C° 0 mm 2 mps 691 mmHg 67%
    09:00 +2°C° 0 mm 2 mps 691 mmHg 66%
    10:00 +3°C° 0 mm 2 mps 690 mmHg 64%
    11:00 +4°C° 0 mm 2 mps 690 mmHg 63%
    12:00 +5°C° 0 mm 2 mps 690 mmHg 62%
    13:00 +4°C° 0 mm 3 mps 689 mmHg 62%
    14:00 +4°C° 0 mm 3 mps 689 mmHg 62%
    15:00 +4°C° 0 mm 3 mps 689 mmHg 62%
    16:00 +4°C° 0 mm 2 mps 689 mmHg 63%
    17:00 +3°C° 0 mm 2 mps 689 mmHg 65%
    18:00 +2°C° 0 mm 2 mps 689 mmHg 66%
    19:00 +2°C° 0 mm 2 mps 689 mmHg 66%
    20:00 +2°C° 0 mm 2 mps 689 mmHg 66%
    21:00 +2°C° 0 mm 2 mps 689 mmHg 66%
    22:00 +2°C° 0 mm 2 mps 689 mmHg 67%
    23:00 +2°C° 0 mm 2 mps 689 mmHg 67%

    15 December, Saturday

    Time Temperature Precipitation Wind Pressure Humidity
    00:00 +2°C° 0 mm 2 mps 689 mmHg 68%
    01:00 +2°C° 0 mm 2 mps 689 mmHg 68%
    02:00 +2°C° 0 mm 2 mps 689 mmHg 68%
    03:00 +2°C° 0 mm 2 mps 689 mmHg 68%
    04:00 +2°C° 0 mm 2 mps 689 mmHg 68%
    05:00 +2°C° 0 mm 2 mps 689 mmHg 69%
    06:00 +2°C° 0 mm 2 mps 689 mmHg 69%
    07:00 +2°C° 0 mm 2 mps 689 mmHg 68%
    08:00 +4°C° 0 mm 1 mps 690 mmHg 68%
    09:00 +5°C° 0 mm 1 mps 690 mmHg 67%
    10:00 +6°C° 0 mm 1 mps 690 mmHg 66%
    11:00 +7°C° 0 mm 1 mps 690 mmHg 64%
    12:00 +7°C° 0 mm 2 mps 689 mmHg 63%
    13:00 +8°C° 0 mm 1 mps 689 mmHg 63%
    14:00 +8°C° 0 mm 1 mps 689 mmHg 63%
    15:00 +8°C° 0 mm 1 mps 689 mmHg 63%
    16:00 +7°C° 0 mm 1 mps 690 mmHg 64%
    17:00 +6°C° 0 mm 1 mps 690 mmHg 65%
    18:00 +5°C° 0 mm 1 mps 690 mmHg 66%
    19:00 +4°C° 0 mm 1 mps 691 mmHg 66%
    20:00 +4°C° 0 mm 1 mps 691 mmHg 66%
    21:00 +4°C° 0 mm 1 mps 691 mmHg 66%
    22:00 +4°C° 0 mm 1 mps 691 mmHg 67%
    23:00 +4°C° 0 mm 1 mps 691 mmHg 67%

    16 December, Sunday

    Time Temperature Precipitation Wind Pressure Humidity
    00:00 +3°C° 0 mm 1 mps 691 mmHg 67%
    01:00 +3°C° 0 mm 1 mps 691 mmHg 67%
    02:00 +3°C° 0 mm 1 mps 691 mmHg 67%
    03:00 +3°C° 0 mm 1 mps 691 mmHg 67%
    04:00 +3°C° 0 mm 1 mps 691 mmHg 67%
    05:00 +3°C° 0 mm 1 mps 691 mmHg 67%
    06:00 +3°C° 0 mm 1 mps 691 mmHg 67%
    07:00 +4°C° 0 mm 1 mps 691 mmHg 66%
    08:00 +5°C° 0 mm 1 mps 691 mmHg 64%
    09:00 +6°C° 0 mm 1 mps 692 mmHg 63%
    10:00 +7°C° 0 mm 1 mps 691 mmHg 61%
    11:00 +8°C° 0 mm 1 mps 691 mmHg 60%
    12:00 +8°C° 0 mm 2 mps 691 mmHg 59%
    13:00 +8°C° 0 mm 2 mps 691 mmHg 58%
    14:00 +8°C° 0 mm 2 mps 690 mmHg 58%
    15:00 +8°C° 0 mm 2 mps 690 mmHg 58%
    16:00 +7°C° 0 mm 2 mps 690 mmHg 59%
    17:00 +6°C° 0 mm 2 mps 690 mmHg 59%
    18:00 +5°C° 0 mm 2 mps 690 mmHg 60%
    19:00 +5°C° 0 mm 1 mps 690 mmHg 60%
    20:00 +5°C° 0 mm 1 mps 690 mmHg 59%
    21:00 +5°C° 0 mm 1 mps 690 mmHg 59%
    22:00 +5°C° 0 mm 1 mps 690 mmHg 59%
    23:00 +4°C° 0 mm 1 mps 690 mmHg 59%
    Show more